RH
84 82 84 83 83 80 76 56 62 73 78 84 94 71 84 99 94 100 98 66 59 46 42 42 41 35 26 38 44 47 28 23 26 28 24 22 19 21 20 17 21 21 21 20 20
85 82 84 87 77 72 63 77 72 80 78 88 99 80 80 95 88 74 78 65 57 45 46 46 43 37 31 34 42 32 29 22 27 25 25 25 20 19 19 18 18 22 21 19 20
80 80 86 74 59 55 77 82 80 81 81 88 93 81 92 94 88 88 75 58 45 47 48 47 41 33 30 34 36 31 28 28 26 27 29 26 24 20 18 20 17 18 23 18 21
81 85 93 74 73 66 84 80 84 86 90 84 90 93 100 86 82 63 59 60 41 48 54 44 40 32 27 30 33 41 29 32 28 28 27 24 23 21 19 17 20 20 21 19 19
90 90 78 61 73 58 76 83 84 87 92 71 93 98 100 90 74 66 59 63 50 53 55 40 37 27 26 26 36 36 28 31 30 28 26 28 23 20 21 19 19 19 18 21 27
68 60 54 52 71 62 70 89 89 80 80 89 100 99 96 85 71 64 68 51 56 61 49 37 36 29 26 29 31 28 32 27 25 24 25 23 21 25 21 22 21 22 22 26 27
65 64 60 60 60 79 84 88 98 99 89 97 88 90 79 85 78 60 55 57 57 64 50 34 35 30 29 28 35 32 28 24 23 23 22 26 22 22 20 25 23 22 23 26 20
68 66 69 65 76 73 70 92 96 80 90 100 100 81 91 87 73 61 70 69 60 62 60 38 32 29 30 35 29 28 26 30 25 24 24 23 23 19 19 20 18 19 20 24 25
76 73 68 70 59 66 90 94 77 73 100 100 95 97 91 82 84 71 73 72 65 70 69 40 30 32 36 28 28 29 24 26 24 26 25 22 23 18 19 21 19 18 17 18 20
79 73 70 75 71 92 94 97 97 96 95 100 93 79 74 76 79 86 95 78 56 40 32 31 30 28 31 29 30 28 25 28 24 26 26 23 21 16 17 21 21 19 19 20 21
70 59 71 77 95 94 82 100 95 100 88 81 78 73 74 71 64 66 70 42 32 27 26 32 29 31 28 30 28 29 30 29 28 29 28 24 25 20 20 22 20 18 18 19 21
58 81 90 84 95 97 100 96 91 100 98 88 83 82 64 60 69 58 43 29 25 26 26 28 32 28 32 33 33 32 32 31 30 29 30 25 25 22 16 17 17 16 16 17 18
74 73 96 96 99 100 98 90 98 98 92 96 79 72 72 61 62 44 31 26 24 27 25 27 29 32 32 36 36 34 31 32 31 28 29 26 24 19 15 16 17 19 19 19 20
77 89 88 94 96 100 98 98 88 74 88 99 92 88 80 68 57 50 40 30 27 26 24 25 31 33 33 34 31 34 32 33 31 27 29 26 25 20 17 19 19 21 24 23 22
77 82 82 78 88 94 96 81 79 76 97 96 94 89 87 85 60 47 39 34 31 27 26 28 28 33 32 30 31 32 33 28 28 27 28 30 28 21 17 19 22 23 26 26 27
58 66 73 74 85 85 64 64 60 68 99 98 96 79 76 68 77 55 45 34 39 31 28 33 32 22 26 27 31 30 27 27 30 29 32 26 29 21 18 18 21 22 27 28 29
63 69 69 76 74 69 56 50 67 93 90 95 90 63 57 67 70 60 48 43 35 35 35 38 36 28 23 22 23 24 23 36 38 32 32 27 30 20 17 17 19 21 27 31 30
63 68 75 74 70 54 53 57 94 89 93 91 79 57 64 67 68 66 58 50 48 41 42 44 51 31 27 24 26 26 28 39 51 36 30 30 37 22 15 17 18 22 30 32 33
59 64 66 65 62 56 59 86 90 82 77 82 76 58 62 55 55 58 63 61 60 47 48 49 47 32 30 25 22 30 34 27 34 32 35 29 24 17 17 17 18 23 29 34 33
54 58 57 59 50 54 62 93 85 79 70 66 69 61 59 57 52 53 55 55 62 57 48 45 55 44 32 28 27 23 23 29 27 39 40 29 27 24 18 17 18 22 29 34 36
45 55 52 51 51 61 79 74 72 71 66 59 68 64 58 60 58 60 57 58 57 58 48 43 48 55 49 35 32 26 25 24 24 25 35 39 30 20 21 17 23 26 36 36 38
46 54 48 46 55 69 70 66 65 64 65 60 58 60 59 66 66 65 59 57 59 54 57 51 54 56 52 46 31 28 26 23 35 40 29 32 32 19 20 23 32 34 37 38 36
51 55 48 46 62 67 59 57 60 61 65 59 63 60 60 65 65 66 66 59 63 51 53 50 59 48 48 48 42 47 36 32 35 40 48 43 32 25 25 29 30 38 39 39 50
48 43 50 51 65 57 57 57 58 58 63 68 66 60 56 64 60 68 65 56 67 60 57 48 54 52 32 36 40 47 43 36 37 41 35 36 30 20 20 24 32 41 40 47 54
52 66 65 55 56 57 54 55 55 56 59 63 62 60 57 62 61 60 59 52 54 54 58 52 58 53 48 46 47 48 45 42 45 40 44 35 31 26 24 26 38 46 50 54 55
57 58 59 66 65 54 59 55 54 52 49 56 58 62 61 55 52 56 56 56 51 52 50 55 51 53 47 34 40 50 46 44 45 41 40 38 39 28 36 53 51 50 54 51 49
50 55 54 67 63 55 50 50 51 48 51 55 57 55 59 59 62 62 61 60 60 54 52 54 47 43 37 52 50 44 34 38 35 33 37 42 30 43 51 53 53 54 54 59 54
Wind_Speed
16 18 17 18 19 19 22 23 24 25 25 31 30 30 38 50 42 36 40 24 26 11 16 17 12 10 8 5 5 3 7 10 7 8 6 2 6 2 4 5 5 5 1 5 9
12 12 12 14 15 18 18 21 23 22 25 28 25 36 36 39 38 39 42 35 24 19 20 18 12 11 7 6 5 9 9 9 2 1 2 1 5 2 6 9 8 8 10 8 10
11 10 10 12 13 14 15 14 21 22 24 24 18 40 37 41 29 32 42 26 23 22 20 15 11 10 9 7 9 8 11 4 2 2 3 3 4 5 7 7 12 11 12 14 13
10 11 13 12 12 13 13 16 16 19 19 25 23 45 44 40 17 36 40 30 26 26 22 16 12 10 8 10 11 7 13 5 0 1 1 3 1 4 12 12 2 6 7 14 16
5 5 7 9 10 12 11 15 13 17 16 35 24 50 42 23 16 17 37 34 30 30 23 18 16 13 10 12 10 10 6 5 3 3 3 3 5 5 11 14 12 7 10 15 17
5 5 7 10 10 9 8 12 15 16 24 29 39 44 33 16 14 23 36 35 35 28 21 18 10 11 8 10 13 6 6 5 3 2 3 4 1 3 2 6 10 14 13 14 18
7 5 5 7 7 6 8 8 15 15 26 31 36 36 31 16 16 30 37 36 36 26 21 20 11 9 7 6 4 2 7 4 3 1 1 5 8 8 6 5 7 10 11 14 19
7 6 7 5 5 6 6 7 9 22 22 23 36 38 11 13 14 31 37 35 31 25 16 16 13 5 3 4 4 4 5 10 5 3 1 4 10 4 5 7 11 11 13 16 20
9 7 5 3 4 5 7 8 6 29 10 26 42 17 9 21 18 33 32 35 29 21 17 13 11 4 4 8 8 7 8 12 4 2 3 3 11 8 7 9 14 18 19 19 20
10 8 4 3 1 4 12 16 14 14 23 24 32 12 14 11 16 26 23 30 21 20 13 7 5 6 5 8 7 8 10 4 7 2 4 10 15 15 16 12 17 20 21 22 22
11 7 6 2 10 17 10 11 16 9 14 4 19 25 21 17 21 20 27 20 19 15 10 5 8 10 10 2 2 5 3 3 2 1 5 5 13 16 14 4 5 6 9 11 14
12 8 10 10 17 3 8 8 13 4 20 28 25 30 29 17 21 21 19 9 15 12 9 7 10 6 6 6 3 2 2 1 1 3 4 7 12 5 10 10 9 10 12 13 15
9 3 6 4 6 14 20 21 8 10 9 17 19 20 11 16 11 12 8 12 13 9 9 9 4 9 6 6 4 1 1 1 2 5 3 10 7 7 11 13 15 16 14 16 18
10 6 7 3 6 10 14 12 14 14 6 6 7 8 8 7 8 9 6 7 3 9 8 6 4 9 6 4 4 3 1 3 3 6 2 7 6 8 8 13 15 21 23 23 24
9 8 7 7 8 8 9 9 8 5 6 2 4 3 8 3 8 5 4 4 6 7 4 3 6 8 6 2 4 2 3 1 1 4 5 4 3 4 1 10 13 18 24 20 22
11 10 6 4 9 10 13 9 6 2 7 4 3 6 11 5 4 4 4 10 7 6 10 6 2 2 2 2 0 5 2 1 2 2 3 3 3 4 2 4 6 12 24 22 21
14 11 8 8 10 12 14 3 4 6 3 4 3 3 12 8 3 3 4 4 3 7 6 4 3 2 0 4 3 5 5 2 3 3 2 1 4 2 4 3 2 6 13 21 21
12 11 10 9 10 16 7 3 9 3 5 3 3 9 8 7 5 3 3 5 4 3 5 4 5 4 1 2 1 1 2 2 2 2 1 1 5 2 10 5 3 4 7 16 19
10 10 15 5 11 17 3 8 3 1 3 5 2 6 4 3 3 3 4 2 1 2 2 4 3 2 1 1 2 4 3 3 3 2 3 1 5 10 12 8 7 2 11 17 19
8 7 19 7 18 12 5 8 4 0 4 3 4 1 4 4 3 2 2 1 3 1 3 4 4 1 3 3 3 3 5 2 2 3 3 2 6 9 9 10 11 2 12 12 14
6 4 13 8 13 13 8 7 5 1 2 2 3 4 4 3 4 2 2 3 2 3 1 4 2 4 1 7 6 4 3 1 1 2 2 3 6 3 4 4 5 7 11 16 18
6 2 9 13 5 4 3 3 2 1 3 3 4 4 3 2 3 2 3 1 4 5 5 1 2 3 2 3 3 1 1 5 3 4 3 3 8 3 3 3 5 8 12 10 10
4 3 10 8 3 4 3 4 4 3 4 2 3 4 2 3 3 2 1 1 4 4 3 5 2 2 5 3 2 4 4 4 1 2 15 5 7 5 8 4 9 12 11 7 4
3 2 6 10 7 4 4 4 4 6 4 6 4 3 3 3 5 3 2 2 1 2 4 3 1 5 3 4 3 4 5 10 12 8 13 18 22 20 16 16 15 12 6 2 3
4 3 3 3 4 4 3 2 3 2 3 5 3 3 3 3 2 2 1 1 2 3 3 2 5 7 12 14 12 14 15 17 17 21 18 24 25 22 19 17 13 2 2 0 3
3 2 5 4 2 1 1 2 4 3 2 1 3 3 3 3 4 2 1 1 1 2 1 1 5 3 12 13 12 17 19 21 24 25 27 28 29 23 13 2 3 5 4 1 5
5 5 3 2 3 2 1 2 4 2 2 4 2 3 3 3 2 1 3 5 3 3 2 2 3 5 11 4 12 14 19 21 16 18 16 16 17 4 4 4 7 9 8 5 12
Wind_Direction
265 262 260 256 254 254 248 253 238 229 232 225 216 213 209 203 209 222 232 227 226 216 204 208 205 215 203 210 203 204 239 227 218 199 206 154 209 181 214 214 202 204 187 178 188
269 265 263 259 261 257 254 247 231 232 233 227 202 204 201 198 201 224 220 221 229 214 197 199 187 191 202 199 204 221 236 229 267 215 265 326 226 226 210 206 220 216 218 204 198
271 259 276 266 260 256 254 245 234 237 234 235 227 200 193 183 183 209 199 208 208 200 200 197 181 188 206 194 201 204 235 235 225 284 305 270 233 219 228 227 234 230 213 215 207
286 267 269 246 257 250 253 233 245 234 239 216 225 183 177 176 178 210 195 202 196 194 197 185 174 195 209 201 202 226 233 249 288 197 266 234 215 230 229 239 262 239 212 219 219
298 287 275 249 256 254 253 243 243 235 232 219 250 167 165 159 199 200 196 195 191 189 196 179 181 208 203 202 195 232 220 225 259 279 264 255 220 250 246 244 250 254 230 226 226
328 302 276 247 258 261 259 229 222 203 203 253 163 158 156 164 194 184 180 185 187 180 183 181 203 205 196 197 213 208 243 264 257 243 289 283 232 226 216 230 237 238 242 235 235
337 327 285 266 274 249 240 242 220 209 219 144 167 165 147 164 160 170 174 177 180 178 177 187 204 189 177 175 223 234 230 211 171 305 325 303 236 227 248 244 243 244 247 249 250
4 354 321 284 229 237 259 212 214 218 242 132 156 156 161 143 157 165 174 176 182 183 184 185 177 172 198 148 150 207 228 219 129 329 59 287 263 232 262 264 262 259 262 258 254
5 355 355 313 261 240 210 157 207 212 175 130 151 145 140 104 132 166 176 177 184 181 186 195 171 156 160 199 187 205 200 221 210 102 333 272 282 263 267 263 274 278 276 270 264
19 24 32 20 323 159 148 136 158 162 142 118 153 100 134 99 120 155 160 163 150 154 142 161 170 185 188 204 199 189 210 201 232 82 286 277 275 280 287 285 283 287 283 278 272
19 28 39 34 118 141 153 94 123 129 151 126 162 112 126 96 132 141 143 145 141 153 167 161 186 194 179 198 127 134 157 215 201 56 302 272 294 314 334 294 308 321 305 299 294
21 49 33 103 110 143 105 106 147 107 93 101 110 106 115 113 117 131 159 156 160 155 146 160 200 148 119 129 146 189 186 153 257 215 285 299 315 25 36 43 17 8 9 355 343
18 44 45 156 104 90 90 121 132 114 96 67 90 104 113 113 100 118 166 146 157 153 171 172 113 149 155 155 179 193 304 132 303 304 219 314 103 88 34 64 68 55 43 30 16
18 32 20 111 42 84 71 65 91 96 74 43 29 39 116 90 52 45 104 139 122 147 125 85 123 157 164 173 216 184 240 224 290 321 335 355 125 83 48 72 59 49 40 38 38
32 8 21 44 81 68 53 40 114 126 83 351 56 116 121 3 131 37 76 114 132 127 224 97 144 156 173 132 210 107 212 301 329 296 299 34 247 83 121 75 55 47 37 39 39
22 16 21 57 66 45 14 40 44 51 62 93 91 165 132 185 122 287 88 96 111 88 79 95 93 57 84 99 190 141 183 126 150 239 217 358 311 141 155 102 80 50 34 32 31
38 44 31 28 14 14 10 358 70 52 254 39 54 77 113 108 109 28 67 80 119 142 126 124 69 105 168 166 166 211 239 234 204 190 49 274 279 277 174 174 201 24 20 20 25
41 45 38 28 12 355 9 105 69 314 64 166 189 93 76 8 48 47 101 105 60 68 123 152 157 172 34 311 111 114 313 308 285 276 70 124 254 325 196 175 267 302 1 15 26
34 35 32 29 354 352 61 57 90 112 110 127 14 78 93 84 132 112 52 85 59 7 127 146 134 128 137 99 270 141 202 16 107 30 275 349 272 270 202 224 256 188 14 19 20
36 30 23 13 353 37 83 94 97 74 145 179 114 213 135 120 122 117 140 123 155 244 314 169 146 171 120 159 68 291 125 158 194 220 241 224 273 246 182 190 204 258 7 13 18
49 43 15 10 13 55 70 81 93 51 294 46 129 116 101 110 92 107 114 138 202 169 211 156 250 141 200 203 175 146 180 81 19 322 290 278 255 244 242 206 354 5 9 4 12
47 68 15 7 38 52 57 49 114 50 52 81 94 84 90 93 85 97 137 301 164 166 171 127 144 195 149 99 37 23 199 206 237 159 240 336 268 274 260 82 21 358 347 1 357
59 52 30 7 95 79 91 96 73 44 34 50 82 42 57 98 99 98 146 58 176 180 161 175 185 192 153 148 140 214 184 184 175 196 238 217 250 130 132 155 340 326 347 14 80
62 92 41 56 51 40 67 51 73 29 48 38 68 40 83 77 39 132 127 36 122 323 0 178 236 268 298 75 99 198 189 210 211 236 255 233 258 270 273 291 310 324 341 101 73
57 73 51 76 68 77 38 25 80 65 38 27 78 76 105 107 84 71 82 65 93 17 35 325 270 262 271 278 273 270 268 250 243 255 259 267 271 273 288 297 298 296 136 290 350
81 112 81 80 345 39 66 156 166 181 191 146 117 124 84 90 61 101 107 198 338 72 111 39 273 312 286 283 283 276 265 261 255 259 262 265 273 285 296 190 221 217 196 82 349
81 90 99 106 127 223 294 139 169 204 48 57 118 132 107 58 87 37 308 298 309 299 198 237 276 288 278 355 309 278 244 243 244 242 249 263 278 354 222 205 234 226 212 342 339